[[{"header":{"parameterUnit":"m.s-1","parameterCategory":1,"la1":30.2991,"la2":30.254,"lo1":-89.0895,"lo2":-89.0444,"dy":0.0017,"dx":0.0017,"nx":28,"ny":28,"refTime":"2024-08-18T03:00:00:Z","depth":0,"parameterNumber":2,"parameterNumberName":"U-component_of_WINDS"},"data":[0,0,0,0,0,0,0,0,0,0,0,0,0,0,0,0,0,0,0,0,0,0,0,0,0,0,0,0,0,0,0,0,0,0,0,0,0,0,0,0,0,0,0,0,0,0,0,0,0,0,0,0,0,0,0,0,0,0,1.6034,1.6035,0,1.6058,1.6058,1.6058,1.6057,1.6057,1.6057,1.6056,1.6081,1.6082,1.6082,0,0,0,0,0,0,0,0,0,0,0,0,0,1.5991,1.5992,1.6034,1.6035,1.6035,1.6058,1.6058,1.6058,1.6057,1.6057,1.6056,1.6056,1.608,1.6081,1.6083,0,0,0,0,0,0,0,0,0,0,0,0,0,1.6012,1.5992,1.6034,1.6037,1.6038,1.6058,1.6058,1.6058,1.6057,1.6057,1.6056,1.6056,1.608,1.6081,1.6083,1.6101,0,0,1.6087,1.6088,0,0,0,0,0,0,0,0,1.6011,1.6014,1.6037,1.6037,1.6038,1.6054,1.6052,1.6073,1.6057,1.605,1.6056,1.6056,1.6072,1.6074,1.608,1.6103,1.6104,1.6087,1.6088,1.6089,1.6089,0,0,0,0,0,0,0,1.6009,1.6013,1.6044,1.6037,1.6038,1.6038,1.604,1.6056,1.6064,1.6051,1.605,1.6053,1.6072,1.6078,1.608,1.6104,1.6087,1.6088,1.6089,1.609,1.6145,1.6146,0,0,0,0,0,0,1.6007,1.6011,1.6043,1.6044,1.6023,1.6039,1.6042,1.6049,1.6063,1.6065,1.6054,1.6053,1.6076,1.6079,1.6081,1.6105,1.6089,1.609,1.6091,1.6145,1.6145,1.6146,0,0,0,0,0,0,1.6006,1.601,1.6042,1.6028,1.6032,1.604,1.6049,1.605,1.6056,1.6066,1.6067,1.6058,1.6076,1.6079,1.6097,1.6106,1.6091,1.6092,1.6144,1.6145,1.6146,1.6152,0,0,0,0,0,0,1.6005,1.601,1.6016,1.6028,1.6033,1.6057,1.6049,1.6051,1.6058,1.6058,1.607,1.6072,1.6076,1.6095,1.6098,1.6107,1.6093,1.6143,1.6144,1.6146,1.6151,1.6153,1.6155,0,0,0,0,0,1.6003,1.6017,1.6016,1.602,1.6041,1.6057,1.606,1.6064,1.6059,1.6066,1.6073,1.6071,1.6104,1.6096,1.61,1.611,1.6143,1.6144,1.6145,1.615,1.6153,1.6155,0,0,0,0,0,0,1.6005,1.6018,1.6018,1.6036,1.6045,1.6057,1.6066,1.6066,1.6077,1.6076,1.6081,1.6084,1.6102,1.6108,1.6099,1.613,1.6123,1.6125,1.6125,1.6128,1.6129,1.6128,1.6094,0,0,0,0,0,1.6008,1.6019,1.603,1.6045,1.605,1.6057,1.6064,1.6066,1.6077,1.6081,1.6089,1.6099,1.6112,1.612,1.6132,1.6152,1.6156,1.6161,1.6163,1.6165,1.6166,1.6179,1.6182,1.6151,1.6151,1.6151,0,0,1.6013,1.6022,1.6028,1.6045,1.6053,1.6066,1.606,1.6073,1.6083,1.6083,1.61,1.6107,1.6119,1.6138,1.6147,1.6143,1.6176,1.6166,1.6167,1.6168,1.6181,1.6184,1.6186,1.6152,1.6151,1.6151,0,0,1.6029,1.6036,1.605,1.6058,1.607,1.6075,1.6078,1.6091,1.6095,1.6112,1.6113,1.6125,1.6146,1.6156,1.6163,1.6185,1.6184,1.6189,1.6198,1.621,1.6213,1.6215,1.6224,1.6226,1.619,1.619,1.6191,0,1.6034,1.6052,1.6057,1.607,1.6078,1.6079,1.6093,1.6101,1.6117,1.6123,1.6119,1.6147,1.6155,1.6177,1.6183,1.6189,1.6193,1.6187,1.6212,1.6214,1.6216,1.6225,1.6228,1.6191,1.6191,1.6191,1.6191,0,1.6058,1.6071,1.6081,1.6096,1.6105,1.6119,1.6126,1.6135,1.6138,1.6143,1.6162,1.6172,1.6187,1.6193,1.6195,1.6216,1.6214,1.6211,1.6204,1.622,1.6228,1.6231,1.6192,1.6191,1.6191,1.6191,0,0,1.6075,1.6094,1.6097,1.6105,1.6119,1.6129,1.6144,1.6159,1.6167,1.6178,1.6191,1.6211,1.6209,1.6217,1.6221,1.6231,1.6249,1.6228,1.6228,1.6232,1.6274,1.6276,1.628,1.6249,1.625,1.6251,1.6274,0,1.6093,1.6118,1.6123,1.6146,1.6159,1.6161,1.6174,1.6184,1.6191,1.6203,1.6211,1.6225,1.6221,1.6226,1.6237,1.6245,1.6258,1.6243,1.6262,1.6263,1.6259,1.6284,1.6286,1.6307,1.6277,1.6277,1.6278,0,1.6116,1.6129,1.6152,1.6167,1.6172,1.6184,1.6199,1.621,1.6223,1.6227,1.6238,1.624,1.6257,1.625,1.6273,1.6263,1.6271,1.6277,1.6278,1.628,1.6271,1.6287,1.6314,1.6317,1.6282,1.6282,1.6282,0,1.6127,1.6149,1.6167,1.6173,1.619,1.6198,1.6206,1.6218,1.6227,1.6241,1.6247,1.6262,1.6271,1.6283,1.629,1.6284,1.6313,1.6306,1.6318,1.6318,1.6324,1.6323,1.6353,1.6329,1.6329,1.6329,1.6329,0,1.6146,1.6161,1.6172,1.6183,1.62,1.6206,1.6223,1.6231,1.6242,1.6255,1.6258,1.6271,1.6279,1.6293,1.6299,1.6319,1.6322,1.6327,1.6328,1.6326,1.6326,1.6332,1.6331,1.633,1.633,1.6329,1.6329,0,1.616,1.6168,1.6188,1.6202,1.6207,1.6219,1.6232,1.6243,1.625,1.6267,1.6271,1.6282,1.6299,1.6308,1.6328,1.6333,1.6355,1.6355,1.635,1.6351,1.6362,1.6361,1.6396,1.6402,1.6374,1.6375,1.6375,0,1.6172,1.6184,1.62,1.6209,1.6217,1.6231,1.624,1.6248,1.6258,1.6275,1.6284,1.6301,1.6315,1.6342,1.6353,1.6369,1.637,1.6382,1.6373,1.6371,1.6371,1.637,1.6372,1.6383,1.6383,1.6383,1.6384,0,1.6192,1.6196,1.621,1.6225,1.6237,1.6249,1.6262,1.6269,1.6279,1.629,1.6308,1.6319,1.6341,1.6358,1.6375,1.6384,1.6386,1.6387,1.639,1.6389,1.6386,1.6388,1.6355,1.6386,1.6385,1.6385,1.6385,1.6385,1.6206,1.6217,1.6231,1.6246,1.6256,1.6268,1.628,1.6289,1.6304,1.6322,1.6326,1.6344,1.6359,1.6383,1.6392,1.6408,1.6405,1.641,1.6412,1.6413,1.6414,1.6383,1.6411,1.6411,1.6411,1.6411,1.6411,0,1.6227,1.6236,1.6251,1.6268,1.6281,1.6282,1.6296,1.6307,1.6323,1.6336,1.635,1.6371,1.6388,1.6401,1.6419,1.6429,1.6431,1.6434,1.6433,1.6435,1.6414,1.641,1.6432,1.6432,1.6432,1.6432,1.6432,1.6432,1.624,1.6258,1.6264,1.6289,1.6298,1.6316,1.6324,1.6336,1.6347,1.637,1.6384,1.6392,1.6406,1.6425,1.6442,1.6445,1.6452,1.6455,1.6458,1.6439,1.6436,1.6434,1.643,1.6456,1.6456,1.6478,1.6478,1.6478]},{"header":{"parameterUnit":"m.s-1","parameterCategory":1,"la1":30.2991,"la2":30.254,"lo1":-89.0895,"lo2":-89.0444,"dy":0.0017,"dx":0.0017,"nx":28,"ny":28,"refTime":"2024-08-18T03:00:00:Z","depth":0,"parameterNumber":3,"parameterNumberName":"V-component_of_WINDS"},"data":[0,0,0,0,0,0,0,0,0,0,0,0,0,0,0,0,0,0,0,0,0,0,0,0,0,0,0,0,0,0,0,0,0,0,0,0,0,0,0,0,0,0,0,0,0,0,0,0,0,0,0,0,0,0,0,0,0,0,-3.6282,-3.6283,0,-3.6401,-3.6402,-3.6403,-3.6427,-3.6426,-3.6425,-3.6424,-3.6544,-3.6548,-3.6552,0,0,0,0,0,0,0,0,0,0,0,0,0,-3.6075,-3.6079,-3.6282,-3.6283,-3.6285,-3.6401,-3.6402,-3.6404,-3.6427,-3.6426,-3.6425,-3.6424,-3.6543,-3.6548,-3.6553,0,0,0,0,0,0,0,0,0,0,0,0,0,-3.6176,-3.608,-3.6281,-3.631,-3.6314,-3.64,-3.6402,-3.6404,-3.6428,-3.6426,-3.6425,-3.6423,-3.6542,-3.6547,-3.6553,-3.6618,0,0,-3.6572,-3.6575,0,0,0,0,0,0,0,0,-3.6171,-3.6184,-3.6305,-3.6309,-3.6313,-3.6398,-3.6373,-3.6476,-3.6428,-3.6384,-3.6424,-3.6423,-3.6497,-3.6506,-3.6532,-3.6624,-3.6629,-3.6572,-3.6576,-3.6579,-3.6581,0,0,0,0,0,0,0,-3.6163,-3.6179,-3.6329,-3.6306,-3.6312,-3.6318,-3.633,-3.6393,-3.6447,-3.6388,-3.639,-3.6404,-3.6499,-3.6526,-3.6535,-3.6631,-3.6572,-3.6578,-3.6581,-3.6584,-3.6785,-3.6787,0,0,0,0,0,0,-3.6151,-3.6173,-3.6325,-3.6332,-3.6237,-3.6322,-3.6337,-3.6372,-3.6446,-3.6456,-3.6405,-3.6405,-3.6516,-3.6527,-3.6539,-3.6621,-3.6579,-3.6584,-3.6588,-3.6783,-3.6785,-3.6787,0,0,0,0,0,0,-3.6147,-3.6165,-3.632,-3.6253,-3.6274,-3.6327,-3.6367,-3.6375,-3.6402,-3.6459,-3.6469,-3.6423,-3.6515,-3.653,-3.6599,-3.6626,-3.6587,-3.6593,-3.6781,-3.6784,-3.6786,-3.6785,0,0,0,0,0,0,-3.6141,-3.6163,-3.6188,-3.6254,-3.6277,-3.6378,-3.6368,-3.6378,-3.6413,-3.6413,-3.6478,-3.6488,-3.6515,-3.659,-3.6605,-3.6633,-3.6597,-3.6779,-3.6783,-3.6786,-3.6783,-3.6787,-3.6791,0,0,0,0,0,-3.6133,-3.6182,-3.6189,-3.6207,-3.6309,-3.638,-3.6393,-3.6425,-3.6415,-3.644,-3.6478,-3.6485,-3.662,-3.6597,-3.6614,-3.6644,-3.6778,-3.6782,-3.6785,-3.6781,-3.6786,-3.6791,0,0,0,0,0,0,-3.6116,-3.6191,-3.62,-3.6271,-3.6319,-3.6384,-3.6417,-3.6429,-3.648,-3.6478,-3.6515,-3.653,-3.6596,-3.6627,-3.66,-3.6712,-3.6699,-3.6706,-3.6689,-3.6695,-3.6699,-3.669,-3.6602,0,0,0,0,0,-3.6121,-3.6172,-3.6235,-3.6292,-3.6316,-3.6362,-3.6394,-3.6414,-3.6465,-3.6485,-3.6527,-3.6576,-3.663,-3.6664,-3.6716,-3.6788,-3.6803,-3.6818,-3.6822,-3.6825,-3.683,-3.6872,-3.688,-3.68,-3.68,-3.68,0,0,-3.6131,-3.6178,-3.6208,-3.629,-3.6329,-3.6382,-3.6379,-3.6434,-3.6473,-3.6494,-3.6561,-3.6594,-3.6651,-3.6722,-3.6755,-3.675,-3.6856,-3.683,-3.6831,-3.6836,-3.6877,-3.6884,-3.6891,-3.6802,-3.6802,-3.6802,0,0,-3.6176,-3.6217,-3.6269,-3.631,-3.6371,-3.6402,-3.6414,-3.6478,-3.6501,-3.657,-3.6587,-3.6635,-3.6726,-3.6766,-3.6799,-3.6863,-3.6872,-3.6879,-3.6899,-3.6939,-3.6946,-3.6951,-3.6975,-3.6983,-3.6884,-3.6884,-3.6884,0,-3.618,-3.626,-3.6294,-3.635,-3.6386,-3.6408,-3.6463,-3.65,-3.6574,-3.6598,-3.6592,-3.6708,-3.6748,-3.683,-3.6846,-3.6871,-3.6887,-3.6871,-3.6942,-3.6948,-3.6954,-3.6977,-3.6985,-3.6885,-3.6885,-3.6885,-3.6885,0,-3.6263,-3.6318,-3.6354,-3.6426,-3.6466,-3.652,-3.6564,-3.66,-3.6618,-3.665,-3.6721,-3.6771,-3.6834,-3.6855,-3.6872,-3.694,-3.6935,-3.6935,-3.6921,-3.6961,-3.6984,-3.6992,-3.6885,-3.6885,-3.6885,-3.6885,0,0,-3.6298,-3.6391,-3.6404,-3.6438,-3.6508,-3.6552,-3.6608,-3.6671,-3.6702,-3.6753,-3.6802,-3.688,-3.6881,-3.6918,-3.694,-3.6976,-3.7025,-3.6972,-3.6974,-3.698,-3.7103,-3.7103,-3.7112,-3.7032,-3.7034,-3.7035,-3.7099,0,-3.6351,-3.6452,-3.6486,-3.657,-3.6623,-3.6647,-3.6696,-3.6744,-3.6777,-3.6826,-3.6861,-3.6916,-3.6913,-3.6936,-3.6972,-3.7011,-3.705,-3.7007,-3.7077,-3.7079,-3.7062,-3.7124,-3.7123,-3.7181,-3.7108,-3.7109,-3.711,0,-3.6426,-3.648,-3.657,-3.6636,-3.6659,-3.6702,-3.6765,-3.6811,-3.6868,-3.6889,-3.6932,-3.6952,-3.7012,-3.6997,-3.7081,-3.7051,-3.7082,-3.7106,-3.7109,-3.7116,-3.7097,-3.7133,-3.72,-3.7208,-3.7124,-3.7123,-3.7122,0,-3.6443,-3.6539,-3.6605,-3.6634,-3.6712,-3.6742,-3.6776,-3.6831,-3.6868,-3.6923,-3.6947,-3.7007,-3.704,-3.7087,-3.7123,-3.7108,-3.7205,-3.7191,-3.7224,-3.7223,-3.7242,-3.724,-3.7315,-3.7263,-3.7263,-3.7262,-3.7262,0,-3.6499,-3.6552,-3.6614,-3.6655,-3.6717,-3.6756,-3.6816,-3.6851,-3.6901,-3.6949,-3.6974,-3.7019,-3.7064,-3.7116,-3.7145,-3.7211,-3.7225,-3.7244,-3.7251,-3.7242,-3.7239,-3.7262,-3.7259,-3.7265,-3.7264,-3.7264,-3.7263,0,-3.6527,-3.6571,-3.6645,-3.6714,-3.6733,-3.6775,-3.6835,-3.6876,-3.691,-3.6971,-3.6988,-3.7042,-3.7104,-3.7145,-3.7224,-3.7244,-3.7315,-3.7322,-3.7297,-3.73,-3.7331,-3.7327,-3.7422,-3.7437,-3.7374,-3.7375,-3.7375,0,-3.6559,-3.6602,-3.6677,-3.6712,-3.6746,-3.6802,-3.684,-3.6881,-3.692,-3.699,-3.7022,-3.7086,-3.7139,-3.7237,-3.7283,-3.7344,-3.7352,-3.7381,-3.7361,-3.7351,-3.7353,-3.735,-3.7355,-3.7384,-3.7384,-3.7385,-3.7385,0,-3.6612,-3.6633,-3.6687,-3.6751,-3.6796,-3.6848,-3.6899,-3.6926,-3.6977,-3.702,-3.7084,-3.7125,-3.7207,-3.7271,-3.7336,-3.7372,-3.7387,-3.7391,-3.7402,-3.7393,-3.7377,-3.7387,-3.7305,-3.7389,-3.7388,-3.7388,-3.7388,-3.7388,-3.6644,-3.6684,-3.6743,-3.6804,-3.6848,-3.6897,-3.6939,-3.698,-3.7035,-3.7105,-3.7126,-3.7194,-3.7251,-3.7342,-3.7378,-3.7432,-3.7429,-3.7444,-3.7448,-3.7451,-3.7452,-3.7369,-3.7444,-3.7444,-3.7444,-3.7444,-3.7444,0,-3.6699,-3.6739,-3.6795,-3.6868,-3.6916,-3.6928,-3.6987,-3.7026,-3.7085,-3.7138,-3.7191,-3.7266,-3.7328,-3.7381,-3.7445,-3.7478,-3.7487,-3.7494,-3.7491,-3.75,-3.745,-3.7435,-3.7486,-3.7486,-3.7486,-3.7486,-3.7486,-3.7486,-3.6733,-3.6801,-3.6829,-3.692,-3.696,-3.7027,-3.7059,-3.7105,-3.7147,-3.723,-3.7283,-3.7317,-3.737,-3.744,-3.7498,-3.7512,-3.7534,-3.754,-3.7555,-3.7508,-3.7503,-3.7498,-3.7484,-3.7544,-3.7544,-3.76,-3.7601,-3.7601]}]]